Everett, WA
on Monday, February 25, 2013

Monday
Previous Day Next Day
Daily Summary
 ActualAverageRecord
Temperature
Mean Temperature °F °F  
Max Temperature 48°F 53°F 62°F (1958)
Min Temperature 37°F 35°F 21°F (1993)
Degree Days
Heating Degree Days 22    
Moisture
Dew Point 34°F   
Average Humidity 73    
Maximum Humidity 93    
Minimum Humidity 44    
Precipitation
Precipitation 0.07 in in in ()
Wind
Wind Speed 13 mph   
Max Wind Speed 22 mph   
Max Gust Speed 30 mph   
Visibility 10 miles   
Events Rain   
Averages and records for this station are not official NWS values.
Key: T is trace of precipitation, MM is missing value
Source: NWS Daily Summary
Seasonal Weather Averages
Time(PST)TemperatureDew PointHumidity Pressure Visibility Wind DirectionWind SpeedGust SpeedPrecipitationEvents Conditions
12:25 AM 41.0°F 35.6°F 81% 29.93 in 6.0 miles South 21.9 mph 29.9 mph 0.01 in Rain Light Rain
12:53 AM 39.9°F 36.0°F 86% 29.93 in 8.0 miles South 17.3 mph - 0.04 in Rain Light Rain
1:24 AM 39.2°F 35.6°F 87% 29.90 in 9.0 miles South 12.7 mph 21.9 mph 0.02 in Rain Light Rain
1:42 AM 39.2°F 35.6°F 87% 29.90 in 10.0 miles South 13.8 mph - 0.02 in Rain Light Rain
1:53 AM 39.9°F 36.0°F 86% 29.90 in 10.0 miles South 11.5 mph - 0.02 in Rain Light Rain
2:53 AM 39.9°F 37.0°F 89% 29.90 in 10.0 miles South 12.7 mph - 0.01 in Rain Light Rain
3:02 AM 39.2°F 37.4°F 93% 29.88 in 8.0 miles South 15.0 mph 20.7 mph 0.00 in Rain Light Rain
3:53 AM 41.0°F 37.9°F 89% 29.88 in 10.0 miles South 16.1 mph - 0.00 in   Overcast
4:53 AM 41.0°F 37.9°F 89% 29.91 in 10.0 miles SSW 17.3 mph 23.0 mph N/A   Overcast
5:53 AM 41.0°F 37.0°F 86% 29.93 in 10.0 miles SSW 13.8 mph - 0.00 in   Overcast
6:53 AM 39.9°F 36.0°F 86% 29.93 in 10.0 miles SSW 13.8 mph 20.7 mph N/A   Overcast
7:53 AM 39.9°F 36.0°F 86% 29.95 in 10.0 miles SSW 13.8 mph - N/A   Overcast
8:53 AM 39.9°F 35.1°F 83% 29.96 in 10.0 miles South 13.8 mph - N/A   Overcast
9:53 AM 41.0°F 36.0°F 82% 29.99 in 10.0 miles South 15.0 mph - N/A   Mostly Cloudy
10:53 AM 43.0°F 36.0°F 76% 30.03 in 10.0 miles SSW 6.9 mph - N/A   Overcast
11:53 AM 44.1°F 34.0°F 68% 30.05 in 10.0 miles Variable 3.5 mph - N/A   Mostly Cloudy
12:39 PM 46.4°F 33.8°F 62% 30.06 in 10.0 miles SSE 3.5 mph - N/A   Mostly Cloudy
12:53 PM 46.9°F 33.1°F 59% 30.08 in 10.0 miles Calm Calm - N/A   Overcast
1:53 PM 46.9°F 30.9°F 54% 30.09 in 10.0 miles North 3.5 mph - N/A   Mostly Cloudy
2:53 PM 48.0°F 30.9°F 52% 30.11 in 10.0 miles NNE 9.2 mph - N/A   Clear
3:53 PM 46.9°F 28.0°F 48% 30.13 in 10.0 miles Calm Calm - N/A   Partly Cloudy
4:53 PM 46.9°F 26.1°F 44% 30.15 in 10.0 miles NNW 9.2 mph - N/A   Scattered Clouds
5:53 PM 43.0°F 28.9°F 58% 30.18 in 10.0 miles Calm Calm - N/A   Clear
6:53 PM 43.0°F 27.0°F 53% 30.20 in 10.0 miles Variable 5.8 mph - N/A   Clear
7:53 PM 43.0°F 28.0°F 56% 30.23 in 10.0 miles Variable 5.8 mph - N/A   Overcast
8:53 PM 42.1°F 30.9°F 65% 30.26 in 10.0 miles East 4.6 mph - N/A   Partly Cloudy
9:53 PM 41.0°F 32.0°F 70% 30.28 in 10.0 miles SSE 5.8 mph - N/A   Mostly Cloudy
10:53 PM 39.0°F 32.0°F 76% 30.30 in 10.0 miles Variable 5.8 mph - N/A   Overcast
11:53 PM 37.9°F 32.0°F 79% 30.31 in 10.0 miles South 9.2 mph - N/A   Clear
Moon Phase
Feb. 25 Feb. 25 Mar. 04 Mar. 11 Mar. 19
Sunrise:06:56 AM (PST) Moon Rise:06:12 PM (PST)2/25
Sunset:05:48 PM (PST) Moon Set:06:26 AM (PST)2/25

Copyright © 2014 The Weather Underground, Inc.